Back to catalog

STARLINK-5751

AliveCommunicationsVLEO
NORAD 55576·PAYLOAD·🇺🇸 United States

Launched Feb 12, 2023 from Cape Canaveral Space Force Station

Loading…

Next Passes (next 24 hours)

TLE

FreshSource: CelesTrak SupGP

Epoch: Sep 14, 2026, 21:08 UTC

1 55576C 23020H   26257.88104167 -.00015831  00000+0 -57341-3 0  2571
2 55576  43.0027 350.9609 0001864 274.2457 126.0278 15.27585650    19

Track STARLINK-5751 in real time with AllMySat

Download on the App Store